Lapse_Rate
6.9 6.9 6.9 6.9 6.8 6.7 6.5 6.6 6.5 6.5 6.6 6.6 6.7 6.7 6.6 6.6 6.5 6.5 6.4 6.4 6.3 6.2 6.3 6.1 6.0 6.0 5.9 5.8 5.7 5.8 5.6 5.5 5.6 5.4 5.2 5.3 5.3 5.4 5.5 5.6 5.8 6.0 6.0
6.8 6.9 6.9 6.9 6.8 6.7 6.6 6.6 6.5 6.5 6.6 6.7 6.8 6.8 6.7 6.6 6.5 6.4 6.4 6.3 6.4 6.3 6.2 6.2 6.0 5.9 5.9 5.9 5.8 5.7 5.6 5.5 5.5 5.4 5.4 5.3 5.4 5.3 5.2 5.5 5.8 5.9 6.0
7.0 7.0 7.0 7.0 6.8 6.9 6.8 6.7 6.5 6.6 6.6 6.6 6.7 6.7 6.7 6.6 6.4 6.4 6.3 6.2 6.3 6.1 6.0 6.0 6.0 5.9 5.8 5.9 5.9 5.8 5.8 5.6 5.5 5.4 5.5 5.6 5.6 5.5 5.6 5.4 5.8 5.8 5.9
7.1 7.1 7.1 7.0 6.9 7.1 7.1 6.8 6.6 6.6 6.5 6.5 6.6 6.6 6.6 6.6 6.5 6.4 6.3 6.2 6.3 6.1 6.1 6.0 6.0 5.9 5.7 5.8 6.0 5.9 5.9 5.8 5.6 5.5 5.5 5.5 5.6 5.7 5.9 5.9 5.9 5.9 5.9
7.3 7.0 7.1 7.0 7.0 7.1 6.9 6.6 6.5 6.4 6.4 6.5 6.6 6.5 6.7 6.7 6.6 6.4 6.3 6.3 6.3 6.2 6.1 6.1 5.9 5.8 5.9 5.9 5.8 5.8 5.9 5.9 5.7 5.6 5.5 5.5 5.6 5.8 6.0 6.1 6.1 6.2 6.1
7.3 7.1 7.1 7.1 7.0 7.0 6.9 6.6 6.3 6.2 6.4 6.5 6.5 6.6 6.7 6.7 6.6 6.4 6.3 6.3 6.2 6.1 5.9 5.8 5.8 5.9 5.7 5.7 5.7 5.6 5.7 5.8 5.7 5.6 5.7 5.7 5.6 5.7 5.9 6.1 6.2 6.3 6.3
7.3 7.2 7.1 7.1 6.9 6.9 6.9 6.7 6.3 6.1 6.2 6.4 6.6 6.7 6.8 6.7 6.5 6.5 6.5 6.3 6.2 5.9 5.7 5.5 5.6 5.8 5.7 5.4 5.3 5.4 5.5 5.6 5.5 5.4 5.5 5.6 5.6 5.6 5.6 6.0 6.3 6.3 6.3
7.4 7.2 7.2 7.1 7.0 6.9 6.7 6.6 6.3 6.2 6.2 6.4 6.5 6.6 6.7 6.5 6.4 6.4 6.3 6.3 6.1 5.9 5.7 5.6 5.5 5.2 5.5 5.6 5.6 5.3 5.3 5.3 5.4 5.5 5.6 5.6 5.7 5.6 5.7 5.7 5.9 6.1 6.2
7.3 7.2 7.3 7.2 7.1 6.9 6.6 6.5 6.3 6.2 6.2 6.4 6.5 6.6 6.5 6.4 6.5 6.5 6.5 6.2 6.0 5.7 5.6 5.6 5.5 5.7 5.5 5.6 5.7 5.6 5.6 5.6 5.2 5.4 5.6 5.7 5.6 5.6 5.7 5.8 5.9 6.0 6.2
7.2 7.2 7.4 7.3 7.3 7.0 6.8 6.6 6.4 6.2 6.4 6.4 6.5 6.6 6.5 6.6 6.8 6.6 6.5 6.2 6.1 5.9 5.7 5.4 5.5 5.8 5.5 5.6 5.3 5.1 5.2 5.5 5.5 5.6 5.7 5.7 5.6 5.7 5.7 5.8 5.9 5.7 5.7
7.0 7.3 7.5 7.5 7.4 7.2 7.0 6.8 6.7 6.5 6.4 6.2 6.3 6.5 6.7 6.8 6.8 6.5 6.4 6.4 6.2 6.0 5.9 5.6 5.5 5.6 5.3 5.3 5.4 5.2 4.9 5.2 5.2 5.3 5.5 5.6 5.6 5.6 5.7 5.8 5.7 5.8 5.8
7.3 7.2 7.1 7.2 7.5 7.3 7.3 7.1 6.9 6.6 6.2 6.2 6.5 6.6 6.7 6.7 6.6 6.5 6.5 6.4 6.2 6.1 5.8 5.6 5.5 5.6 5.6 5.6 5.1 5.0 5.2 5.1 5.0 5.1 5.1 5.4 5.5 5.5 5.6 5.6 5.6 5.6 5.7
7.5 7.4 7.2 7.3 7.5 7.5 7.4 7.1 6.9 6.9 6.5 6.4 6.6 6.6 6.6 6.4 6.3 6.5 6.4 6.5 6.3 6.1 5.8 5.7 5.5 5.5 5.6 5.6 5.4 5.5 5.3 5.4 5.4 5.5 5.6 5.5 5.5 5.6 5.6 5.7 5.7 5.7 5.7
7.2 7.4 7.6 7.5 7.5 7.7 7.7 7.4 7.2 7.0 6.7 6.4 6.6 6.7 6.6 6.5 6.7 6.7 6.7 6.7 6.5 6.3 5.9 5.7 5.7 5.7 5.7 5.7 5.5 5.6 5.5 5.5 5.5 5.5 5.3 5.5 5.6 5.6 5.6 5.7 5.6 5.6 5.6
7.3 7.3 7.5 7.5 7.5 7.7 7.8 7.6 7.3 7.0 6.9 6.5 6.6 6.6 6.6 6.6 6.7 6.6 6.7 6.7 6.5 6.2 6.0 5.6 5.5 5.5 5.7 5.6 5.3 5.2 5.4 5.4 5.3 5.2 5.4 5.4 5.5 5.5 5.7 5.7 5.6 5.6 5.8
7.1 7.3 7.6 7.4 7.5 7.7 7.8 7.6 7.5 7.2 7.0 6.7 6.4 6.4 6.5 6.4 6.4 6.5 6.6 6.5 6.3 6.2 6.0 5.8 5.4 5.4 5.5 5.4 5.4 5.3 5.4 5.5 5.5 5.5 5.3 5.6 5.8 5.7 5.8 5.8 5.7 5.5 5.6
6.9 7.2 7.6 7.6 7.4 7.6 7.6 7.4 7.4 7.2 6.9 6.7 6.4 6.3 6.3 6.3 6.3 6.2 6.3 6.3 6.3 6.2 6.1 5.8 5.6 5.4 5.4 5.4 5.5 5.6 5.6 5.6 5.7 5.6 5.4 5.6 5.7 5.7 5.7 5.7 5.9 5.9 5.5
7.1 7.1 7.4 7.5 7.6 7.4 7.2 7.2 7.2 7.1 6.7 6.7 6.6 6.3 6.3 6.3 6.3 6.1 6.2 6.2 6.2 6.1 6.0 5.9 5.7 5.5 5.4 5.4 5.3 5.5 5.4 5.5 5.5 5.7 5.6 5.6 5.6 5.6 5.6 5.7 5.9 5.6 5.3
7.4 7.2 7.2 7.4 7.5 7.5 7.2 7.0 7.2 6.9 6.7 6.7 6.5 6.3 6.2 6.2 6.3 6.3 6.2 6.1 6.1 6.0 5.9 5.9 5.8 5.7 5.6 5.5 5.5 5.5 5.6 5.5 5.7 5.8 5.8 5.8 5.6 6.0 6.2 5.7 5.7 5.5 5.2
7.3 7.4 7.2 7.3 7.2 7.2 7.0 7.1 6.9 6.8 6.7 6.5 6.4 6.3 6.2 6.1 6.2 6.2 6.2 6.1 5.9 5.8 5.9 5.8 5.8 5.7 5.8 5.8 5.7 5.5 5.5 5.5 5.5 5.6 5.6 5.8 5.7 5.9 5.8 5.9 5.7 5.7 5.3
6.9 7.1 7.2 7.0 7.0 7.0 7.0 6.9 6.9 6.8 6.7 6.6 6.5 6.3 6.2 6.0 6.0 6.0 6.1 6.0 5.9 5.8 5.8 5.8 5.8 5.7 5.7 5.8 5.9 5.7 5.7 5.5 5.3 5.3 5.4 5.6 5.7 5.8 5.9 6.0 5.8 6.0 5.5
7.0 7.1 7.3 7.1 6.8 6.8 6.8 6.9 6.7 7.0 7.0 6.8 6.6 6.3 6.1 5.8 5.9 5.9 5.9 6.0 5.9 5.9 6.0 6.0 6.1 6.1 6.0 6.1 6.2 5.9 5.9 5.7 5.5 5.4 5.4 5.6 5.4 5.5 5.7 5.7 5.7 5.6 5.5
6.8 7.0 7.3 7.2 6.9 6.7 6.6 6.8 6.7 6.6 6.4 6.4 6.1 6.2 6.2 6.0 5.8 6.0 6.2 6.1 5.9 6.0 5.9 5.9 6.2 6.2 6.1 5.8 5.9 6.2 6.0 5.9 5.4 5.4 5.6 5.7 5.4 5.1 5.2 5.3 5.4 5.4 5.3
6.8 6.9 7.0 7.0 6.8 6.8 6.9 6.6 6.8 6.9 6.9 6.3 6.4 5.9 5.7 5.9 5.7 5.5 5.9 6.2 5.9 6.0 5.8 5.9 5.9 5.9 5.9 5.8 5.8 6.0 5.8 5.7 5.4 5.3 5.1 5.1 5.2 5.2 5.1 5.1 5.1 5.1 5.1
6.7 6.9 6.9 6.9 6.6 6.6 6.7 6.6 6.5 6.6 6.4 6.3 6.2 6.3 6.0 5.9 5.8 6.0 5.6 5.8 5.8 5.8 5.9 5.9 5.8 5.7 5.8 5.7 5.7 5.7 5.8 5.8 5.6 5.4 5.4 5.3 5.1 5.0 4.8 4.7 4.6 4.5 4.5
6.7 6.8 6.9 7.0 6.9 6.7 6.7 6.6 6.5 6.7 6.6 6.4 6.4 6.1 5.8 6.1 6.1 5.8 5.6 5.7 5.6 5.6 5.8 5.9 5.9 5.7 5.7 5.7 5.7 5.8 5.7 5.7 5.7 5.7 5.7 5.5 5.3 5.2 5.0 4.9 4.6 4.0 4.1
Wind_Speed
6 13 22 23 23 22 20 19 19 19 19 19 20 20 20 19 19 20 20 20 20 21 22 22 23 24 24 25 25 25 24 23 23 22 22 22 23 24 23 23 22 23 25
12 16 23 24 23 23 20 18 20 20 19 19 20 20 19 19 19 20 20 21 21 23 24 24 24 24 24 25 26 25 25 23 22 23 23 23 22 23 23 24 24 24 24
15 18 21 24 22 22 21 18 20 20 20 20 20 20 20 20 20 21 21 22 23 25 24 26 25 25 25 25 24 24 24 23 21 21 21 17 18 23 23 23 24 23 24
14 19 20 25 22 22 23 19 22 20 20 20 19 20 20 20 20 22 23 23 24 25 25 24 24 25 24 23 23 23 22 21 21 21 18 17 17 21 21 22 23 22 22
13 19 21 26 24 23 23 20 22 20 19 20 20 20 21 22 21 22 23 24 24 24 23 24 23 22 23 23 22 21 20 20 21 19 19 18 16 19 20 21 21 21 20
11 17 23 27 26 25 24 22 21 20 20 20 21 20 21 23 24 26 26 26 26 27 28 29 29 27 25 23 22 20 19 19 21 19 17 18 18 19 20 21 22 21 21
13 16 22 26 26 25 24 23 23 21 21 21 22 23 25 26 26 27 26 26 27 28 29 30 30 28 26 24 22 21 21 22 19 19 17 16 18 19 19 19 22 21 21
12 16 20 26 26 25 24 25 24 23 23 23 24 25 26 26 26 24 22 23 26 28 30 29 27 27 26 24 22 22 23 23 19 18 16 16 20 20 19 18 22 21 20
11 13 17 22 24 25 24 25 24 24 24 24 24 25 24 23 24 23 23 26 27 26 26 26 24 24 24 24 24 23 24 26 20 16 14 14 19 21 21 21 21 20 19
10 12 13 18 20 20 21 25 24 25 25 25 26 25 25 26 24 24 25 27 28 28 28 28 24 25 27 23 22 22 21 23 20 16 15 15 16 18 19 20 19 19 18
9 12 13 16 18 19 18 22 24 24 26 28 28 28 23 20 22 22 25 29 29 28 27 27 25 25 26 25 22 22 20 16 20 18 15 14 15 16 17 18 18 18 17
13 14 13 13 16 20 18 21 21 22 20 22 22 20 19 19 21 22 27 28 28 27 25 24 22 22 20 18 16 21 18 17 22 21 22 12 15 15 15 16 16 16 17
15 12 15 14 17 18 15 18 16 16 18 19 19 18 21 19 18 18 17 18 17 18 16 18 21 20 19 17 17 18 19 21 18 19 30 26 15 13 13 13 14 15 16
15 15 15 15 12 15 16 14 14 14 15 15 17 19 19 15 15 15 14 14 15 15 18 18 18 19 22 23 20 20 21 18 16 17 24 33 32 18 8 11 14 15 17
14 14 15 15 13 13 11 14 14 13 14 16 16 16 18 16 14 15 13 13 15 16 18 17 18 17 19 20 19 19 19 18 20 16 16 28 32 32 20 8 12 16 18
12 16 15 14 13 15 9 14 12 14 15 15 15 16 18 18 17 15 13 14 16 17 17 17 16 16 16 17 19 20 18 18 20 17 18 19 24 30 33 12 11 14 19
14 16 18 15 13 14 13 14 14 15 16 14 14 17 19 19 17 16 14 13 15 18 21 20 18 18 17 18 18 18 17 18 18 19 20 20 18 23 33 38 17 11 18
14 18 18 13 15 15 12 13 13 15 14 13 14 16 20 20 19 16 14 13 17 16 16 15 14 9 8 9 8 14 16 18 20 21 20 19 21 22 22 30 36 27 19
18 17 16 17 17 15 12 12 12 12 12 13 14 14 19 19 19 16 14 15 17 14 12 13 7 7 8 8 9 13 16 17 16 17 20 20 22 24 22 20 28 36 31
18 16 16 14 16 15 11 9 8 8 8 12 14 14 19 18 20 18 15 16 16 14 11 11 10 8 6 9 9 9 11 13 15 17 17 18 22 25 24 26 24 23 31
17 17 16 16 12 12 11 9 6 6 5 5 11 16 16 17 18 18 16 15 14 9 8 13 9 11 4 5 5 5 6 11 14 15 16 18 21 22 22 23 21 22 22
18 18 15 15 15 11 10 10 5 6 3 5 10 12 15 16 16 17 18 14 12 9 9 7 7 4 3 2 3 3 2 3 6 11 14 14 17 17 21 22 23 23 23
17 18 17 16 15 11 11 9 9 7 7 3 5 4 9 16 16 16 16 16 14 13 8 6 5 6 4 3 5 4 3 3 2 3 6 10 13 14 18 20 23 24 24
13 13 14 16 14 11 13 11 19 11 10 4 6 4 8 15 15 18 17 17 16 13 8 6 8 3 4 4 2 4 5 4 3 2 3 4 10 10 15 17 20 22 24
11 12 12 12 12 12 11 11 11 11 5 9 8 10 7 9 13 15 16 15 15 13 12 14 7 5 3 4 3 3 3 4 4 3 3 1 3 7 12 15 17 19 20
10 11 13 14 9 11 11 10 9 11 11 10 9 9 6 4 8 11 13 11 12 13 12 11 12 9 5 5 3 3 3 3 3 3 3 2 3 2 6 14 14 15 18
Wind_Direction
224 162 162 155 148 140 138 133 129 131 130 130 127 122 120 117 116 119 113 112 107 104 104 103 101 98 100 100 96 95 93 89 89 87 86 90 90 90 87 86 86 84 84
154 160 161 153 150 142 139 136 132 130 131 130 131 126 122 120 117 121 115 114 112 108 108 107 100 97 97 98 98 96 95 91 88 85 84 86 90 92 91 84 82 82 83
154 159 160 150 148 142 138 137 133 131 135 133 131 126 123 123 122 121 120 117 113 106 108 105 102 99 98 97 95 95 94 92 87 85 84 84 92 93 92 92 88 86 85
148 157 156 148 146 144 140 140 137 135 137 130 131 126 125 126 126 123 119 115 110 102 103 102 104 101 98 94 95 96 94 89 90 91 82 84 89 96 95 91 88 86 85
153 157 155 149 148 146 142 141 134 135 133 128 130 126 124 122 122 117 113 107 101 99 101 99 100 95 94 92 93 92 89 87 92 92 90 91 88 89 88 87 89 88 87
150 154 155 149 147 146 143 142 135 135 129 127 125 125 120 113 112 112 106 100 98 99 95 93 92 90 88 88 89 88 84 87 89 89 85 90 97 99 96 100 95 88 88
146 147 152 149 147 144 146 140 136 134 129 131 131 123 115 109 107 105 106 106 103 98 95 91 89 86 85 83 83 82 74 79 79 80 85 95 97 100 104 99 97 91 89
142 149 155 150 147 144 145 137 137 135 133 133 131 125 120 118 114 110 108 111 110 110 101 93 84 85 85 79 76 74 75 74 68 73 85 94 95 94 103 98 95 94 91
144 153 151 147 144 142 142 138 137 137 134 130 128 123 123 121 115 112 106 97 96 102 106 103 106 98 86 83 72 65 62 66 60 58 77 95 99 94 99 99 97 96 95
160 157 148 141 142 141 140 139 134 131 129 125 118 116 117 113 109 107 101 99 101 98 100 102 100 96 91 79 81 68 56 56 51 40 67 89 93 93 96 95 98 100 99
167 151 154 147 140 135 133 131 128 129 124 117 115 115 105 100 96 92 99 95 96 97 95 94 93 88 85 78 70 72 62 47 56 35 30 90 94 95 95 97 97 102 101
167 154 155 153 148 141 136 130 129 127 127 123 124 118 109 103 97 91 86 93 97 98 95 92 85 77 70 68 60 60 57 50 52 36 24 74 85 88 95 99 99 103 106
160 154 158 152 150 142 138 132 134 131 127 122 121 113 111 105 98 89 85 82 85 89 89 84 75 69 69 71 61 59 54 50 45 41 29 41 69 81 92 99 106 106 106
157 160 154 149 147 144 136 138 132 128 123 121 121 121 118 110 100 96 95 97 96 96 90 85 83 79 72 67 62 61 53 53 44 42 34 39 45 47 80 109 115 114 107
160 150 155 146 146 144 135 131 134 132 131 129 125 124 124 119 112 114 109 106 101 100 98 94 89 84 77 72 64 62 55 48 48 40 38 39 37 34 35 109 119 121 114
154 151 155 148 146 137 137 132 137 137 133 129 127 125 123 123 126 123 116 108 99 103 99 99 97 90 80 77 67 56 52 49 47 40 41 36 38 36 31 114 112 130 124
162 153 152 150 141 132 137 126 135 142 143 136 131 129 127 130 132 126 121 112 110 110 107 103 94 88 81 74 68 59 53 47 45 42 40 33 27 36 39 49 47 131 119
155 157 154 148 143 139 136 133 134 144 147 135 133 133 131 136 136 127 123 119 121 115 113 109 107 94 86 82 76 61 56 48 39 38 40 33 31 31 33 41 46 51 106
163 153 150 150 147 140 130 121 120 118 131 136 129 134 134 135 135 128 126 126 123 113 104 111 91 100 101 90 84 69 55 47 40 36 35 32 35 35 32 35 45 47 65
163 154 149 150 151 142 127 118 108 108 105 131 141 142 137 136 133 124 124 128 129 122 111 105 105 80 107 108 89 74 60 52 48 40 32 35 35 37 34 39 42 43 51
156 146 150 145 149 150 145 140 142 144 141 117 136 138 137 144 141 135 134 133 137 135 131 125 113 113 95 126 104 75 62 58 51 41 36 36 33 34 36 39 37 42 41
154 151 147 152 153 165 166 154 137 141 103 114 131 129 140 144 148 147 148 148 134 129 130 140 136 124 90 356 111 100 85 22 44 35 33 42 32 36 37 37 42 44 43
158 157 156 156 157 161 155 117 109 104 98 86 145 133 141 147 148 150 149 148 141 147 152 143 133 123 131 37 46 125 113 168 119 2 24 33 40 37 41 41 47 48 47
157 155 154 155 152 156 160 160 156 164 159 158 165 133 138 149 150 152 153 152 149 147 149 149 136 118 118 137 96 41 55 124 142 112 21 24 40 38 36 44 50 53 53
143 145 142 142 143 151 156 167 168 162 149 139 153 143 132 126 135 145 150 150 147 152 156 154 138 138 108 134 121 138 71 64 69 127 137 36 42 28 44 45 52 53 57
132 137 135 136 137 145 144 154 155 156 150 145 161 151 158 134 127 125 142 144 153 150 156 155 143 142 135 121 120 125 149 151 166 129 113 113 116 18 42 48 43 48 53